Content
SEND FEEDBACK

Daily
Averages
Monthly
Summary
United States of America

AGANA, GUAM


Home > North America > United States > Guam
Elevation: 74 meters     Latitude: 13 29N     Longitude: 144 48E

WEATHER
 
SELECT A DAY
Number of Records: 208,892;   Date Range: 1/1/95 - 7/22/14
 
SHARE

PRINT THIS DATA

[ ← Previous Day ]
WEATHER ALMANAC - 19 FEBRUARY, 2013
[ Next Day → ]
[ °F ]   °C
Weather ElementAverageHighLow
Temperature26.4 °C29.9 °C (11:54 am)23.9 °C (3:54 am)
Dewpoint23.4 °C24.4 °C (11:54 am)21.7 °C (11:54 pm)
Humidity83.7 %100 % (3:23 am)72 % (11:54 am)
Barometer1010.8 hPa1012.5 hPa (10:31 am)1009.1 hPa (2:54 pm)
Wind Speed26.4 km/h40.7 km/h (12:20 pm)
Wind Gust53.8 km/h (12:20 pm)
Weather ElementAverage
Visibility15.8 km
Wind DirectionENE (78.9 °)

Weather ElementTotal
Precipitation0.76 mm
Cooling Degree Days8.6 (Base 18.3)
Growing Degree Days16.9 (Base 10)
Averaged from 37 records on 19 February, 2013
WEATHER CONDITIONS BREAKOUT
WIND DIRECTION BREAKOUT
WEATHER BY HOUR - 19 FEBRUARY, 2013
[ °F ]   °C
Local TimeTemperatureDewpointHumidityBarometerVisibilityWind DirectionWind SpeedGust SpeedPrecipitationEventsConditions
1:54 AM24.4 °C22.8 °C91 %1010.5 hPa16.1 kmEast (80°)22.2 km/hPartly Cloudy
2:54 AM24.4 °C23.3 °C94 %1010.2 hPa16.1 kmEast (90°)20.4 km/hMostly Cloudy
3:14 AM24 °C23 °C94 %1010.8 hPa12.9 kmEast (80°)24.1 km/h38.9 km/h0 mmRainLight Rain
3:23 AM24 °C24 °C100 %1010.5 hPa16.1 kmEast (80°)22.2 km/h0 mmScattered Clouds
3:54 AM23.9 °C23.3 °C96 %1009.5 hPa16.1 kmEast (80°)24.1 km/h0 mmMostly Cloudy
4:54 AM23.9 °C22.8 °C94 %1009.8 hPa16.1 kmEast (80°)25.9 km/h37 km/hScattered Clouds
5:29 AM24 °C23 °C94 %1010.8 hPa16.1 kmEast (80°)25.9 km/h37 km/hMostly Cloudy
5:54 AM23.9 °C22.8 °C94 %1010.5 hPa16.1 kmEast (80°)22.2 km/hMostly Cloudy
6:11 AM24 °C22 °C89 %1011.2 hPa16.1 kmEast (80°)25.9 km/hScattered Clouds
6:54 AM24.4 °C22.2 °C87 %1011.2 hPa16.1 kmENE (70°)25.9 km/h38.9 km/hMostly Cloudy
7:54 AM24.4 °C22.8 °C91 %1011.9 hPa16.1 kmENE (70°)24.1 km/h37 km/hOvercast
8:54 AM27.5 °C23.5 °C79 %1011.9 hPa16.1 kmENE (70°)31.5 km/h48.1 km/hScattered Clouds
9:54 AM28.5 °C24.1 °C77 %1012.2 hPa16.1 kmENE (70°)24.1 km/h48.1 km/hMostly Cloudy
10:31 AM29 °C24 °C74 %1012.5 hPa16.1 kmEast (80°)33.3 km/h46.3 km/hScattered Clouds
10:54 AM29.1 °C24.2 °C75 %1011.5 hPa16.1 kmENE (70°)33.3 km/h50.1 km/hMostly Cloudy
11:54 AM29.9 °C24.4 °C72 %1011.2 hPa16.1 kmEast (80°)35.2 km/h46.3 km/hMostly Cloudy
12:20 PM29 °C24 °C74 %1011.5 hPa16.1 kmEast (80°)40.7 km/h53.8 km/hMostly Cloudy
12:54 PM29.5 °C24 °C72 %1010.5 hPa16.1 kmENE (70°)38.9 km/h50.1 km/hScattered Clouds
1:54 PM29.3 °C24.4 °C75 %1009.5 hPa11.3 kmEast (90°)25.9 km/h40.7 km/h0.25 mmMostly Cloudy
2:54 PM28.2 °C24.2 °C79 %1009.1 hPa16.1 kmEast (80°)29.6 km/h44.4 km/hScattered Clouds
3:17 PM28 °C24 °C79 %1009.8 hPa16.1 kmEast (80°)31.5 km/h42.6 km/hMostly Cloudy
3:31 PM28 °C24 °C79 %1009.8 hPa16.1 kmEast (90°)24.1 km/h40.7 km/hScattered Clouds
3:54 PM28.7 °C24.3 °C77 %1009.1 hPa16.1 kmEast (90°)31.5 km/h42.6 km/hScattered Clouds
4:23 PM27 °C23 °C79 %1009.8 hPa11.3 kmENE (70°)27.8 km/h38.9 km/h0 mmRainLight Rain
4:31 PM27 °C23 °C79 %1009.8 hPa16.1 kmENE (70°)27.8 km/h37 km/h0 mmMostly Cloudy
4:54 PM27.4 °C23.3 °C78 %1009.5 hPa16.1 kmENE (60°)25.9 km/h38.9 km/h0 mmScattered Clouds
5:54 PM26.2 °C23.9 °C87 %1009.8 hPa16.1 kmENE (70°)25.9 km/h33.3 km/h0.51 mmMostly Cloudy
6:08 PM26 °C24 °C89 %1010.5 hPa16.1 kmENE (70°)27.8 km/h44.4 km/h0 mmScattered Clouds
6:54 PM25.4 °C23.9 °C91 %1010.2 hPa16.1 kmEast (80°)22.2 km/h0 mmMostly Cloudy
7:54 PM26.2 °C22.8 °C81 %1010.8 hPa16.1 kmEast (80°)24.1 km/h35.2 km/hMostly Cloudy
8:08 PM26 °C23 °C83 %1011.5 hPa16.1 kmEast (90°)29.6 km/h38.9 km/hScattered Clouds
8:16 PM26 °C23 °C83 %1011.5 hPa16.1 kmEast (90°)18.5 km/h38.9 km/hMostly Cloudy
8:50 PM26 °C23 °C83 %1011.9 hPa16.1 kmEast (90°)18.5 km/h33.3 km/hScattered Clouds
8:54 PM26.4 °C23.3 °C83 %1011.2 hPa16.1 kmEast (80°)20.4 km/h31.5 km/hScattered Clouds
9:54 PM26.2 °C23.3 °C84 %1011.2 hPa16.1 kmEast (80°)22.2 km/hPartly Cloudy
10:54 PM25.8 °C22.8 °C83 %1011.2 hPa16.1 kmEast (90°)14.8 km/h0 mmMostly Cloudy
11:54 PM26 °C21.7 °C77 %1011.2 hPa16.1 kmEast (80°)29.6 km/h38.9 km/hClear
Hourly data recorded from PGUM, located 0 kilometers away from Agana, Guam







STORIES FROM OUR PARTNERS